TimeEDT,TemperatureF,Dew PointF,Humidity,Sea Level PressureIn,VisibilityMPH,Wind Direction,Wind SpeedMPH,Gust SpeedMPH,PrecipitationIn,Events,Conditions,WindDirDegrees,DateUTC
12:51 AM,32.0,25.0,75,30.14,5.0,NNE,8.1,-,0.03,Rain,Light Freezing Rain,30,2013-04-12 04:51:00
1:04 AM,32.0,26.6,80,30.11,5.0,NNE,6.9,-,0.04,Rain,Light Freezing Rain,20,2013-04-12 05:04:00
1:51 AM,32.0,27.0,82,30.13,8.0,North,4.6,-,0.07,Rain,Light Freezing Rain,10,2013-04-12 05:51:00
2:51 AM,32.0,28.0,85,30.10,8.0,Variable,3.5,-,0.06,Rain,Light Freezing Rain,0,2013-04-12 06:51:00
3:17 AM,32.0,28.4,87,30.10,4.0,NNE,3.5,-,0.03,Rain,Light Freezing Rain,20,2013-04-12 07:17:00
3:34 AM,32.0,28.4,87,30.09,4.0,NE,3.5,-,0.03,,Light Freezing Drizzle,40,2013-04-12 07:34:00
3:51 AM,32.0,28.9,88,30.09,7.0,NE,5.8,-,0.03,,Light Freezing Drizzle,40,2013-04-12 07:51:00
4:30 AM,32.0,30.2,93,30.08,3.0,NNE,3.5,-,0.00,,Light Freezing Drizzle,20,2013-04-12 08:30:00
4:51 AM,32.0,30.0,92,30.08,3.0,NNE,4.6,-,0.00,,Light Freezing Drizzle,30,2013-04-12 08:51:00
5:51 AM,32.0,30.9,96,30.07,3.0,NNE,3.5,-,0.00,,Light Freezing Drizzle,20,2013-04-12 09:51:00
5:58 AM,32.0,30.2,93,30.06,3.0,Calm,Calm,-,0.00,,Light Freezing Drizzle,0,2013-04-12 09:58:00
6:43 AM,32.0,30.2,93,30.04,2.5,NNE,4.6,-,0.00,,Light Freezing Drizzle,20,2013-04-12 10:43:00
6:51 AM,32.0,30.9,96,30.03,2.5,NE,5.8,-,0.00,,Light Freezing Drizzle,40,2013-04-12 10:51:00
7:29 AM,33.8,30.2,87,30.01,2.5,North,3.5,-,0.00,,Light Drizzle,360,2013-04-12 11:29:00
7:51 AM,33.1,30.9,92,30.00,2.5,North,3.5,-,0.00,,Light Drizzle,360,2013-04-12 11:51:00
8:12 AM,33.8,32.0,93,29.98,3.0,NNE,3.5,-,0.00,,Light Drizzle,20,2013-04-12 12:12:00
8:51 AM,34.0,30.9,89,29.98,4.0,Calm,Calm,-,0.00,,Light Drizzle,0,2013-04-12 12:51:00
9:51 AM,35.1,33.1,92,29.94,5.0,NE,3.5,-,0.00,,Light Drizzle,50,2013-04-12 13:51:00
9:58 AM,35.6,33.8,93,29.92,4.0,Calm,Calm,-,0.00,Rain,Light Rain,0,2013-04-12 13:58:00
10:06 AM,35.6,33.8,93,29.92,1.2,Calm,Calm,-,0.02,Rain,Light Rain,0,2013-04-12 14:06:00
10:27 AM,35.6,33.8,93,29.92,2.0,Calm,Calm,-,0.07,Rain,Light Rain,0,2013-04-12 14:27:00
10:51 AM,36.0,33.1,89,29.94,2.0,SE,5.8,-,0.14,Rain,Rain,140,2013-04-12 14:51:00
11:25 AM,35.6,33.8,93,29.92,1.5,South,6.9,-,0.08,Rain,Rain,170,2013-04-12 15:25:00
11:34 AM,35.6,32.0,87,29.91,2.0,SSE,6.9,-,0.11,Rain,Light Rain,160,2013-04-12 15:34:00
11:51 AM,35.1,32.0,89,29.91,2.5,South,10.4,-,0.13,Rain,Light Rain,170,2013-04-12 15:51:00
12:05 PM,35.6,33.8,93,29.90,3.0,South,9.2,-,0.01,Rain,Light Rain,180,2013-04-12 16:05:00
12:15 PM,35.6,33.8,93,29.90,2.5,South,9.2,-,0.02,Rain,Light Rain,190,2013-04-12 16:15:00
12:42 PM,35.6,33.8,93,29.89,2.5,SSE,8.1,-,0.04,Rain,Light Rain,160,2013-04-12 16:42:00
12:51 PM,36.0,34.0,93,29.90,2.5,SSE,9.2,-,0.05,Rain,Light Rain,160,2013-04-12 16:51:00
1:04 PM,37.4,33.8,87,29.89,3.0,South,8.1,-,0.00,Rain,Light Rain,180,2013-04-12 17:04:00
1:32 PM,37.4,33.8,87,29.88,10.0,South,9.2,-,0.00,,Light Drizzle,170,2013-04-12 17:32:00
1:51 PM,37.0,34.0,89,29.88,10.0,SSE,6.9,-,0.00,,Light Drizzle,150,2013-04-12 17:51:00
2:51 PM,39.0,34.0,82,29.84,10.0,South,10.4,-,0.00,,Overcast,170,2013-04-12 18:51:00
3:51 PM,39.9,33.1,77,29.81,10.0,SSE,8.1,-,0.00,,Overcast,150,2013-04-12 19:51:00
4:51 PM,39.9,33.1,77,29.79,10.0,South,9.2,-,N/A,,Overcast,170,2013-04-12 20:51:00
5:51 PM,39.9,34.0,79,29.79,10.0,South,9.2,-,N/A,,Overcast,170,2013-04-12 21:51:00
6:51 PM,39.9,33.1,77,29.79,10.0,South,8.1,-,N/A,,Overcast,170,2013-04-12 22:51:00
7:51 PM,39.9,34.0,79,29.80,10.0,Calm,Calm,-,N/A,,Overcast,0,2013-04-12 23:51:00
8:51 PM,37.9,36.0,93,29.80,3.0,NNW,4.6,-,0.01,,Overcast,330,2013-04-13 00:51:00
9:05 PM,37.4,35.6,93,29.80,3.0,North,5.8,-,0.00,,Light Drizzle,350,2013-04-13 01:05:00
9:51 PM,37.0,36.0,96,29.82,2.0,North,4.6,-,0.01,,Light Drizzle,360,2013-04-13 01:51:00
10:23 PM,37.4,35.6,93,29.80,3.0,North,6.9,-,0.01,,Overcast,360,2013-04-13 02:23:00
10:51 PM,37.0,36.0,96,29.82,1.5,North,3.5,-,0.02,,Overcast,360,2013-04-13 02:51:00
11:51 PM,37.0,35.1,93,29.82,1.8,NNE,4.6,-,0.00,,Overcast,20,2013-04-13 03:51:00